Regional Weather Roundup
Issued by NWS

Home | Current Version | Previous Version | Graphics & Text | Print | Product List | Glossary Off
Versions: 1 2 3 4 5 6 7 8 9 10 11 12 13 14 15 16 17 18 19 20 21 22 23 24 25 26 27 28 29 30 31 32 33 34 35 36 37 38 39 40 41 42 43 44 45 46 47 48 49 50

000
ASUS43 KMKX 201511
RWRWI

WISCONSIN REGIONAL WEATHER ROUNDUP
NATIONAL WEATHER SERVICE MILWAUKEE/SULLIVAN WI
1000 AM CDT SUN AUG 20 2017

NOTE: "FAIR" INDICATES FEW OR NO CLOUDS BELOW 12,000 FEET WITH NO
SIGNIFICANT WEATHER AND/OR OBSTRUCTIONS TO VISIBILITY.

WIZ001-002-006>008-014>016-023>028-201600-
NORTHWEST WISCONSIN

CITY           SKY/WX    TMP DP  RH WIND       PRES   REMARKS
SUPERIOR ARPT    N/A     73  66  78 SW8       29.85R
ASHLAND        MOSUNNY   75  65  70 S12       29.87F
HAYWARD        MOSUNNY   73  64  73 S12       29.91S
SIREN          SUNNY     73  64  72 SW8       29.89S
CUMBERLAND     SUNNY     70  63  78 S10       29.93R
RICE LAKE      SUNNY     71  65  80 S9        29.94S
CHETEK         SUNNY     72  65  80 S5        29.93S
LADYSMITH      CLOUDY    72  65  78 S12       29.96R
EAU CLAIRE     PTSUNNY   70  63  78 S10       29.94R
MENOMONIE      CLOUDY    72  65  81 S8        29.94S
NEW RICHMOND   SUNNY     73  63  69 SW9       29.93R
OSCEOLA        SUNNY     74  65  73 SW9       29.94R
$$

WIZ003>005-009-010-017-018-201600-
NORTH CENTRAL WISCONSIN

CITY           SKY/WX    TMP DP  RH WIND       PRES   REMARKS
MANITOWISH WTR SUNNY     71  67  85 SW10      29.94F
ARBOR VITAE    MOSUNNY   72  64  76 S10G18    29.96F
WOODRUFF       MOSUNNY   72  64  76 S10G18    29.96F
RHINELANDER    CLOUDY    70  63  78 SW12      29.99S
EAGLE RIVER    CLOUDY    71  61  71 SW8       29.97S
LAND O LAKES   SUNNY     71  62  72 SW12G17   29.99R
PHILLIPS       MOSUNNY   70  64  83 S8G16     29.96S
TOMAHAWK         N/A     69  62  79 CALM      29.99S
MEDFORD        CLOUDY    68  63  82 S12       29.99R
MERRILL        CLOUDY    72  64  78 SW7       30.00R
$$

WIZ029-030-035-036-043>047-201600-
CENTRAL WISCONSIN

CITY           SKY/WX    TMP DP  RH WIND       PRES   REMARKS
WAUSAU         CLOUDY    69  62  78 S8        29.99R
MOSINEE        MOSUNNY   68  64  88 S8        30.02R
MARSHFIELD     CLOUDY    69  62  78 S9        30.00R
STEVENS POINT  CLOUDY    70  62  75 S8        30.02R
WAUPACA        PTSUNNY   73  63  70 S8        30.02R
WAUTOMA        CLOUDY    71  64  78 S5        30.03R
WISC RAPIDS    CLOUDY    72  63  73 SW8       30.02R
CAMP DOUGLAS   CLOUDY    72  63  73 SE8       30.00R
$$

WIZ011>013-019>022-031-037>040-048>050-201600-
NORTHEAST WISCONSIN

CITY           SKY/WX    TMP DP  RH WIND       PRES   REMARKS
ANTIGO         CLOUDY    70  63  78 SW7       30.02R
SHAWANO        CLOUDY    73  64  74 SW5       30.00S
OCONTO         CLOUDY    73  63  70 SW6       30.00S
STURGEON BAY   CLOUDY    74  64  71 SW7       30.02R
GREEN BAY      CLOUDY    73  69  87 S6        30.01R
MANITOWOC      CLOUDY    76  62  62 SW12      30.03R
APPLETON       PTSUNNY   73  61  64 S9        30.01R
CLINTONVILLE   CLOUDY    72  63  73 S7        30.01S
OSHKOSH        CLOUDY    73  63  70 S12       30.03R
$$

WIZ032>034-041-042-053>061-201600-
SOUTHWEST WISCONSIN

CITY           SKY/WX    TMP DP  RH WIND       PRES   REMARKS
LA CROSSE      CLOUDY    73  64  73 S10       29.98R
SPARTA         CLOUDY    71  64  78 S5        30.00R
VIROQUA        CLOUDY    68  64  88 S6        30.01S
BOSCOBEL       CLOUDY    70  64  81 SW3       30.01R
PRAIRIE DU CHI CLOUDY    69  63  80 S3        30.01S
PLATTEVILLE    CLOUDY    70  67  92 S9        30.05R
$$

WIZ056-057-062-063-064-067-068-201600-
SOUTH CENTRAL WISCONSIN

CITY           SKY/WX    TMP DP  RH WIND       PRES   REMARKS
REEDSBURG      PTSUNNY   71  65  80 S7        30.02R
BARABOO/DELLS  PTSUNNY   72  61  67 S9        30.03R
LONE ROCK      CLOUDY    71  66  84 E5        30.01R
MINERAL POINT  CLOUDY    70  66  88 S8        30.04S
MADISON        CLOUDY    72  63  73 S7        30.03R
MIDDLETON      CLOUDY    73  62  69 SW7       30.04R
WATERTOWN      CLOUDY    73  66  79 S8        30.04R
MONROE         CLOUDY    70  63  78 S8        30.05R
JANESVILLE     CLOUDY    75  61  60 S8        30.02S
$$

WIZ051-052-058>065-066-070>072-201600-
SOUTHEAST WISCONSIN

CITY           SKY/WX    TMP DP  RH WIND       PRES   REMARKS
MILWAUKEE      CLOUDY    78  62  57 SW10      30.04R HX  80
WAUKESHA       SUNNY     72  61  68 S7        30.06R
MILWAUKEE/TIMM SUNNY     75  59  57 S9        30.05R
RACINE         CLOUDY    77  63  61 S6        30.06S
KENOSHA        CLOUDY    76  64  66 S7        30.05S
FOND DU LAC    CLOUDY    74  61  63 S6        30.03R
SHEBOYGAN      CLOUDY    77  67  71 S10       30.04R
WEST BEND      CLOUDY    72  64  78 S6        30.05R
JUNEAU         MOSUNNY   72  62  71 S8        30.05S
$$

LSZ147-162-201600-
LAKE SUPERIOR

STATION/POSITION TIME  TEMP    WIND        PRES    WAVE
                       AIR SEA DIR/SP/G            HT/PER
                 (UTC) (F)     (DEG/KT/KT) (MB)    (FT/S)
W MID LAKE BUOY  1450   63 60  200/ 12/ 14 1010.3F   1/ 3
DEVILS ISLAND    1500   68     220/  5/  7 1010.4F
SAXON HARBOR     1440   74     200/  9/ 15 1011.2F
$$

LMZ867-665-643>646-201600-
LAKE MICHIGAN

STATION/POSITION TIME  TEMP    WIND        PRES    WAVE
                       AIR SEA DIR/SP/G            HT/PER
                 (UTC) (F)     (DEG/KT/KT) (MB)    (FT/S)
S GREEN BAY BUOY 1500   71 71  210/ 10/ 14 1015.8
N MID LAKE BUOY  1450   68 67  180/  8/ 10 1016.2R   1/ 4
NORTHPORT PIER   1440   70     140/  6/ 10 1015.6R
KEWAUNEE LAKESHO 1448   67     160/  7/  8 1015.6R
SHEBOYGAN LAKESH 1400   68     160/  7/  8 1016.0F
PORT WASHINGTON  1430   74     170/  5/  6 1017.9R
ATWATER BUOY     1409   71 71  170/  8/ 10 1017.6R
MILWAUKEE LAKESH 1450   75     200/  8/ 10   N/A
S MID LAKE BUOY  1450   72 71  190/ 10/ 12 1017.8R   1/ 3
KENOSHA   LAKESH 1500   72     160/  8/  9 1017.3
$$

TC  - TEMPERATURE IN CELSIUS
VSB - VISIBILITY IN STATUTE MILES
WCI - WIND CHILL INDEX
HX  - HEAT INDEX





USA.gov is the U.S. government's official web portal to all federal, state and local government web resources and services.